[[{"header":{"parameterUnit":"m.s-1","parameterCategory":1,"la1":30.2991,"la2":30.254,"lo1":-89.0895,"lo2":-89.0444,"dy":0.0017,"dx":0.0017,"nx":28,"ny":28,"refTime":"2025-11-14T09:00:00:Z","depth":0,"parameterNumber":2,"parameterNumberName":"U-component_of_WINDS"},"data":[0,0,0,0,0,0,0,0,0,0,0,0,0,0,0,0,0,0,0,0,0,0,0,0,0,0,0,0,0,0,0,0,0,0,0,0,0,0,0,0,0,0,0,0,0,0,0,0,0,0,0,0,0,0,0,0,0,0,2.8845,2.8847,0,2.8959,2.896,2.8961,2.8935,2.8933,2.893,2.8928,2.9045,2.905,2.9055,0,0,0,0,0,0,0,0,0,0,0,0,0,2.8606,2.8611,2.8845,2.8847,2.8848,2.8958,2.896,2.8962,2.8935,2.8932,2.893,2.8927,2.9044,2.905,2.9056,0,0,0,0,0,0,0,0,0,0,0,0,0,2.8714,2.8612,2.8845,2.8848,2.885,2.8958,2.896,2.8962,2.8936,2.8932,2.8929,2.8926,2.9042,2.9049,2.9057,2.9169,0,0,2.908,2.9083,0,0,0,0,0,0,0,0,2.8708,2.8723,2.8846,2.8848,2.885,2.8929,2.8919,2.9031,2.8937,2.8903,2.8928,2.8925,2.9009,2.9019,2.9048,2.9175,2.918,2.9081,2.9085,2.9089,2.9091,0,0,0,0,0,0,0,2.87,2.8718,2.889,2.8848,2.885,2.8844,2.8856,2.894,2.8973,2.8906,2.8904,2.8918,2.901,2.904,2.905,2.9181,2.9081,2.9087,2.9092,2.9095,2.9406,2.9409,0,0,0,0,0,0,2.8691,2.8712,2.8886,2.8893,2.8769,2.8851,2.8864,2.8907,2.8972,2.8979,2.892,2.8916,2.9029,2.9041,2.9054,2.919,2.9089,2.9096,2.91,2.9402,2.9407,2.9411,0,0,0,0,0,0,2.8686,2.8707,2.8882,2.8802,2.8824,2.8859,2.8907,2.8911,2.8942,2.8983,2.8989,2.8946,2.9027,2.9044,2.9141,2.9194,2.9099,2.9106,2.9398,2.9404,2.9409,2.9463,0,0,0,0,0,0,2.868,2.8706,2.8749,2.8803,2.8828,2.8966,2.891,2.8916,2.8955,2.895,2.9009,2.9015,2.9026,2.9129,2.9148,2.9203,2.9112,2.9393,2.9401,2.9407,2.9456,2.9469,2.948,0,0,0,0,0,2.8671,2.8759,2.8751,2.8772,2.8883,2.8969,2.8984,2.8994,2.8959,2.9003,2.903,2.9013,2.9185,2.914,2.9161,2.9218,2.939,2.9399,2.9406,2.9451,2.9467,2.948,0,0,0,0,0,0,2.871,2.8767,2.8758,2.8866,2.8913,2.8965,2.902,2.901,2.9068,2.9061,2.9072,2.9085,2.9184,2.9211,2.9159,2.933,2.9283,2.9295,2.9309,2.9325,2.9336,2.9328,2.9119,0,0,0,0,0,2.8731,2.8797,2.8843,2.8934,2.8958,2.8985,2.9023,2.9027,2.9076,2.9096,2.9129,2.9178,2.9243,2.9285,2.9347,2.946,2.9472,2.951,2.9522,2.9532,2.9543,2.9604,2.9622,2.9438,2.9438,2.9437,0,0,2.8776,2.8815,2.8856,2.8943,2.898,2.9047,2.9002,2.9075,2.9126,2.9107,2.92,2.9227,2.9282,2.9387,2.9435,2.9413,2.9596,2.9542,2.955,2.9556,2.9615,2.9632,2.9647,2.9443,2.9442,2.9441,0,0,2.8891,2.8928,2.9007,2.9045,2.9101,2.9119,2.9138,2.9191,2.9208,2.9302,2.9289,2.935,2.9461,2.9501,2.9535,2.9666,2.9653,2.9686,2.9749,2.9809,2.9823,2.9836,2.9882,2.9899,2.9697,2.9697,2.9697,0,2.8939,2.9041,2.905,2.9125,2.9163,2.915,2.923,2.9267,2.9341,2.9368,2.9341,2.9481,2.9517,2.9631,2.9663,2.9692,2.9714,2.9679,2.982,2.9833,2.9846,2.989,2.9907,2.9701,2.97,2.97,2.9699,0,2.9097,2.9167,2.9225,2.9296,2.9342,2.9419,2.944,2.9485,2.9485,2.9506,2.9602,2.9644,2.9715,2.9742,2.9743,2.9857,2.9841,2.9818,2.977,2.9867,2.9908,2.9925,2.9706,2.9704,2.9703,2.9702,0,0,2.9239,2.9315,2.9336,2.9368,2.9429,2.9484,2.9561,2.9629,2.9668,2.9719,2.9784,2.9879,2.9857,2.9897,2.9902,2.9955,3.0055,2.9925,2.9926,2.9947,3.0183,3.02,3.0219,3.0047,3.005,3.0053,3.0178,0,2.936,2.9495,2.9506,2.9628,2.9693,2.9681,2.9748,2.9793,2.9814,2.9873,2.9896,2.9963,2.993,2.9954,3.0005,3.0032,3.0103,3.0023,3.0107,3.011,3.0093,3.0241,3.0259,3.0375,3.0195,3.0197,3.0199,0,2.9518,2.9574,2.9703,2.9755,2.9782,2.9843,2.9906,2.9962,3.0013,3.0025,3.0069,3.0067,3.0146,3.0096,3.0205,3.0151,3.0186,3.0205,3.021,3.0217,3.016,3.0253,3.0413,3.043,3.0225,3.0223,3.0221,0,2.9609,2.9716,2.9807,2.9835,2.9898,2.994,2.9969,3.0016,3.0057,3.0113,3.0139,3.0204,3.0239,3.0289,3.0305,3.0267,3.0414,3.0365,3.0425,3.0425,3.0456,3.0454,3.0624,3.048,3.048,3.048,3.0479,0,2.9742,2.9821,2.9848,2.9904,2.9992,3.0004,3.0091,3.0117,3.0159,3.022,3.0214,3.0271,3.0289,3.0349,3.0362,3.045,3.0467,3.0478,3.0481,3.0478,3.0477,3.0501,3.0493,3.0484,3.0483,3.0482,3.0481,0,2.9857,2.9879,2.9977,3.0029,3.0044,3.0106,3.0151,3.0204,3.0225,3.0301,3.032,3.0352,3.0423,3.0444,3.0529,3.0537,3.0641,3.0636,3.0624,3.0624,3.0683,3.0677,3.0874,3.0901,3.074,3.0741,3.0743,0,2.994,3.0001,3.0059,3.0099,3.0129,3.0194,3.0235,3.0249,3.0292,3.0355,3.0401,3.0471,3.0527,3.0641,3.0672,3.0737,3.0734,3.0798,3.0743,3.0739,3.0734,3.073,3.0736,3.0808,3.081,3.0811,3.0812,0,3.0085,3.0093,3.0153,3.0217,3.0266,3.0317,3.0366,3.0399,3.042,3.0469,3.0541,3.0585,3.0672,3.0741,3.0807,3.0837,3.0829,3.083,3.0847,3.0845,3.0835,3.0841,3.0651,3.0825,3.0824,3.0823,3.0822,3.0822,3.0187,3.024,3.0289,3.0356,3.0394,3.044,3.0493,3.052,3.058,3.0652,3.0657,3.0735,3.0784,3.0872,3.0905,3.0966,3.0947,3.0973,3.0979,3.0985,3.099,3.0826,3.0978,3.0978,3.0978,3.0978,3.0977,0,3.0331,3.0362,3.0423,3.0492,3.0544,3.0532,3.0586,3.063,3.0699,3.0746,3.0802,3.0885,3.0952,3.0988,3.1056,3.1098,3.1096,3.1115,3.1112,3.1118,3.1003,3.0981,3.1115,3.1115,3.1115,3.1115,3.1115,3.1115,3.0412,3.0501,3.0514,3.0623,3.0653,3.073,3.0761,3.0804,3.0841,3.0934,3.099,3.1013,3.1056,3.1126,3.1187,3.1196,3.1221,3.1243,3.1249,3.1141,3.1127,3.1113,3.1092,3.1248,3.1248,3.136,3.1361,3.1362]},{"header":{"parameterUnit":"m.s-1","parameterCategory":1,"la1":30.2991,"la2":30.254,"lo1":-89.0895,"lo2":-89.0444,"dy":0.0017,"dx":0.0017,"nx":28,"ny":28,"refTime":"2025-11-14T09:00:00:Z","depth":0,"parameterNumber":3,"parameterNumberName":"V-component_of_WINDS"},"data":[0,0,0,0,0,0,0,0,0,0,0,0,0,0,0,0,0,0,0,0,0,0,0,0,0,0,0,0,0,0,0,0,0,0,0,0,0,0,0,0,0,0,0,0,0,0,0,0,0,0,0,0,0,0,0,0,0,0,3.2822,3.2823,0,3.292,3.2921,3.2922,3.2905,3.2904,3.2902,3.29,3.2994,3.2998,3.3002,0,0,0,0,0,0,0,0,0,0,0,0,0,3.2616,3.262,3.2822,3.2824,3.2825,3.292,3.2921,3.2922,3.2906,3.2904,3.2902,3.29,3.2993,3.2998,3.3003,0,0,0,0,0,0,0,0,0,0,0,0,0,3.2709,3.2621,3.2822,3.2828,3.283,3.292,3.2921,3.2923,3.2906,3.2904,3.2901,3.2899,3.2991,3.2997,3.3003,3.3092,0,0,3.3022,3.3025,0,0,0,0,0,0,0,0,3.2703,3.2716,3.2826,3.2828,3.283,3.2898,3.2883,3.2979,3.2907,3.2877,3.29,3.2897,3.2964,3.2972,3.2996,3.3096,3.31,3.3022,3.3026,3.3029,3.303,0,0,0,0,0,0,0,3.2697,3.2712,3.2861,3.2828,3.283,3.2824,3.2834,3.2901,3.2933,3.2879,3.2878,3.289,3.2964,3.299,3.2998,3.3101,3.3022,3.3028,3.3031,3.3034,3.3279,3.3282,0,0,0,0,0,0,3.269,3.2707,3.2858,3.2864,3.2759,3.283,3.2841,3.2879,3.2932,3.2938,3.2893,3.2889,3.2981,3.2991,3.3001,3.3109,3.3029,3.3034,3.3038,3.3277,3.328,3.3283,0,0,0,0,0,0,3.2685,3.2703,3.2854,3.2785,3.2804,3.2836,3.2878,3.2882,3.2907,3.2943,3.2948,3.2913,3.2979,3.2992,3.307,3.3112,3.3037,3.3043,3.3273,3.3278,3.3282,3.3325,0,0,0,0,0,0,3.2679,3.2702,3.2737,3.2786,3.2808,3.2923,3.2881,3.2886,3.2919,3.2916,3.2963,3.2969,3.2978,3.3061,3.3076,3.3119,3.3047,3.327,3.3275,3.328,3.332,3.333,3.3339,0,0,0,0,0,3.2672,3.2744,3.2739,3.2757,3.2853,3.2925,3.2937,3.2949,3.2922,3.2957,3.298,3.2967,3.3105,3.3069,3.3086,3.3131,3.3267,3.3274,3.328,3.3315,3.3328,3.3338,0,0,0,0,0,0,3.2696,3.275,3.2745,3.2835,3.2876,3.2922,3.2967,3.2961,3.3009,3.3003,3.3013,3.3024,3.3103,3.3124,3.3084,3.322,3.3182,3.3192,3.3203,3.3215,3.3225,3.3218,3.3053,0,0,0,0,0,3.2712,3.2769,3.2812,3.2887,3.2908,3.2934,3.2966,3.2971,3.3013,3.303,3.3058,3.3097,3.3149,3.3183,3.3233,3.3322,3.3332,3.3362,3.3371,3.3379,3.3388,3.3437,3.3451,3.3304,3.3304,3.3304,0,0,3.2745,3.2782,3.2816,3.2893,3.2925,3.2982,3.2948,3.3009,3.3051,3.3038,3.3114,3.3136,3.318,3.3264,3.3303,3.3285,3.343,3.3387,3.3393,3.3398,3.3445,3.3459,3.3471,3.3309,3.3308,3.3307,0,0,3.2835,3.2869,3.2935,3.2969,3.3019,3.3036,3.3052,3.31,3.3115,3.3191,3.3183,3.3232,3.3321,3.3354,3.3382,3.3485,3.3475,3.3501,3.355,3.3598,3.361,3.362,3.3657,3.3671,3.3509,3.3509,3.3509,0,3.2869,3.2957,3.297,3.3033,3.3066,3.306,3.3127,3.3158,3.3221,3.3243,3.3223,3.3336,3.3365,3.3457,3.3483,3.3505,3.3523,3.3495,3.3608,3.3618,3.3628,3.3663,3.3677,3.3512,3.3512,3.3511,3.3511,0,3.2997,3.3057,3.3105,3.3169,3.3208,3.3272,3.3293,3.3331,3.3333,3.3352,3.343,3.3465,3.3522,3.3544,3.3545,3.3636,3.3624,3.3605,3.3568,3.3644,3.3678,3.3692,3.3516,3.3515,3.3514,3.3513,0,0,3.3104,3.3176,3.3193,3.3222,3.3278,3.3324,3.3387,3.3446,3.3478,3.3521,3.3575,3.3651,3.3635,3.3667,3.3672,3.3714,3.3794,3.369,3.3692,3.3709,3.3897,3.3911,3.3927,3.3788,3.3791,3.3793,3.3893,0,3.3199,3.3315,3.3329,3.3431,3.3487,3.3481,3.3537,3.3576,3.3595,3.3644,3.3664,3.3719,3.3693,3.3712,3.3754,3.3776,3.3832,3.3769,3.3837,3.3839,3.3827,3.3944,3.3959,3.4053,3.3907,3.3909,3.391,0,3.3326,3.3376,3.3485,3.3534,3.3558,3.3608,3.3663,3.371,3.3754,3.3765,3.3801,3.3801,3.3866,3.3826,3.3914,3.3871,3.3899,3.3914,3.3918,3.3925,3.388,3.3955,3.4082,3.4097,3.3931,3.393,3.3928,0,3.3394,3.3488,3.3566,3.3591,3.365,3.3685,3.3711,3.3752,3.3787,3.3834,3.3857,3.391,3.3939,3.398,3.3993,3.3963,3.4082,3.4042,3.4092,3.4091,3.4117,3.4115,3.4251,3.4135,3.4134,3.4134,3.4134,0,3.3499,3.3566,3.3598,3.3645,3.3719,3.3734,3.3806,3.383,3.3868,3.3919,3.3916,3.3963,3.3979,3.4028,3.4039,3.4111,3.4124,3.4134,3.4136,3.4134,3.4133,3.4153,3.4147,3.4138,3.4137,3.4136,3.4136,0,3.3588,3.3612,3.3696,3.3746,3.376,3.3812,3.3854,3.3899,3.3918,3.3983,3.3998,3.4027,3.4086,3.4104,3.4173,3.4181,3.4265,3.4261,3.4251,3.4252,3.43,3.4296,3.4454,3.4476,3.4345,3.4346,3.4347,0,3.3653,3.3705,3.3761,3.3797,3.3825,3.3881,3.3917,3.3933,3.3971,3.4025,3.4064,3.4122,3.417,3.4263,3.4289,3.4343,3.434,3.4392,3.4348,3.4345,3.4342,3.4339,3.4344,3.44,3.4402,3.4403,3.4404,0,3.3768,3.3778,3.3831,3.389,3.3934,3.3979,3.4023,3.4052,3.4074,3.4116,3.4177,3.4214,3.4287,3.4345,3.4399,3.4423,3.4417,3.4418,3.4432,3.4431,3.4424,3.4429,3.4275,3.4414,3.4413,3.4412,3.4412,3.4411,3.3848,3.3894,3.3941,3.4001,3.4036,3.4078,3.4124,3.415,3.4202,3.4264,3.427,3.4336,3.4378,3.4451,3.4478,3.4529,3.4514,3.4534,3.454,3.4545,3.4549,3.4416,3.4539,3.4539,3.4538,3.4538,3.4538,0,3.3962,3.3993,3.4048,3.4112,3.4159,3.4151,3.42,3.4239,3.4298,3.434,3.4388,3.4458,3.4514,3.4546,3.4602,3.4636,3.4635,3.465,3.4648,3.4654,3.4559,3.4542,3.4651,3.4651,3.4651,3.4651,3.4651,3.4651,3.4028,3.4106,3.4122,3.4217,3.4247,3.4314,3.4342,3.438,3.4414,3.4493,3.4541,3.4562,3.4599,3.4658,3.4709,3.4717,3.4738,3.4755,3.4761,3.4672,3.466,3.4649,3.4633,3.4759,3.476,3.4851,3.4852,3.4853]}]]